ボアッティーニ彗星

C/2010 F1 ( Boattini )

English version
Home page
Updated on October 3, 2010

---------------------------------------------------------------------

・ プロフィール

発見日 2010年3月17日
発見光度 18.1等
発見者 A. Boattini (Catalina Sky Survey)

・ 写真集

・ 軌道要素

Epoch 2009 Nov. 25.0 TT = JDT 2455160.5
T 2009 Nov. 10.61664 TT                                 MPC
q   3.5876638            (2000.0)            P               Q
z  +0.0147024      Peri.  127.52389     -0.49621806     -0.83328189
 +/-0.0000000      Node   344.39050     +0.16150273     +0.18724719
e   0.9472527      Incl.   64.93486     +0.85304426     -0.52017284

・ 光度変化

        m1 = 10.0 + 5 logΔ + 10.0 log r

---------------------------------------------------------------------

軌道要素はM.P.E.C. 2010-H52に掲載されたものです。
光度グラフはComet for Windowsで作成したものです。

---------------------------------------------------------------------

Copyright(C) Seiichi Yoshida (comet@aerith.net). All rights reserved.